Lapse_Rate
-0.1 0.9 1.9 2.8 3.4 4.4 4.8 4.7 5.0 4.9 5.2 5.4 5.2 4.8 4.8 4.6 3.5 3.1 2.9 3.8 4.9 5.3 6.1 5.2 5.0 3.8 3.2 3.0 2.9 2.9 3.0 3.2 3.8 3.6 3.2 2.9 3.0 2.9 2.9 3.8 4.9 5.8 6.2
0.3 0.6 0.5 1.7 2.9 3.6 4.0 4.2 4.2 4.4 4.2 4.8 4.4 4.8 4.1 3.7 3.4 2.8 2.5 2.8 3.2 4.2 4.7 4.4 4.7 4.6 4.3 3.1 3.0 2.8 2.7 2.7 3.5 4.2 3.7 3.1 3.0 2.8 2.7 2.8 3.0 3.7 4.4
0.2 0.1 -0.4 -0.2 1.2 2.6 3.2 3.3 2.7 2.7 2.3 4.1 3.4 3.5 3.7 3.4 3.4 2.4 2.5 3.1 3.2 3.5 3.9 3.8 3.7 3.7 4.1 3.9 3.4 3.2 2.9 2.8 2.5 2.6 3.1 3.3 3.0 2.7 2.5 2.7 3.1 3.3 3.1
0.5 0.3 -0.4 0.0 1.2 1.8 2.2 1.8 1.7 1.3 1.0 1.8 1.6 1.5 2.0 2.3 2.2 2.3 1.7 2.7 2.3 2.5 2.6 2.8 3.0 2.9 3.1 3.3 3.2 3.2 3.4 3.4 3.5 3.2 2.6 2.5 2.9 2.7 2.6 2.5 2.8 3.1 3.3
0.3 0.2 -0.3 0.3 1.2 1.1 1.1 1.8 1.2 1.8 1.5 1.6 2.2 1.8 2.0 2.2 2.7 3.0 2.4 2.3 2.5 2.5 2.3 1.9 1.9 2.3 2.7 2.8 3.0 3.2 3.3 3.2 3.1 2.8 2.5 2.5 2.4 2.6 2.7 3.0 2.9 3.0 3.1
-0.3 -0.0 -0.4 0.3 1.0 0.1 0.5 1.0 1.6 0.8 1.5 1.6 3.0 2.0 1.6 1.7 2.3 3.0 3.5 3.1 1.9 1.3 0.4 -0.2 -0.2 0.8 1.8 1.8 1.9 2.5 2.8 2.9 2.8 2.5 2.3 2.3 2.2 2.1 2.0 2.3 2.9 3.6 3.8
-0.5 -0.4 -0.8 -0.5 0.3 0.2 0.3 0.4 0.3 1.2 1.4 1.0 1.8 3.1 3.5 3.9 3.5 2.3 2.4 2.6 1.4 0.6 0.0 -0.3 -0.6 -0.9 -0.6 0.5 1.1 1.0 1.6 2.1 2.2 1.8 1.6 1.7 1.8 2.1 2.4 2.6 2.7 2.9 3.4
0.0 0.1 -0.4 -1.0 -0.8 -0.7 -0.4 -0.2 0.1 -0.2 0.2 -0.1 2.1 3.1 5.6 5.5 3.9 3.3 2.6 1.8 0.7 0.3 0.0 -0.1 -0.4 -0.8 -0.6 -0.3 0.3 -0.0 0.1 1.0 1.6 1.7 1.8 1.7 2.1 2.5 2.5 3.1 3.1 3.4 3.5
0.7 0.9 0.4 -0.1 -0.5 -0.7 -0.4 -0.7 -0.5 0.0 0.4 -0.3 0.6 2.5 5.2 4.9 4.6 4.7 2.8 1.8 0.9 0.1 -0.1 0.1 -0.0 -0.5 -0.6 -0.4 -0.5 -0.9 -0.6 0.1 1.0 1.3 1.4 1.5 1.7 2.2 2.4 2.6 2.9 3.2 3.9
0.9 1.1 0.8 0.4 0.1 -0.2 -0.3 -0.5 -0.4 -0.8 -0.1 0.1 0.0 -0.2 -0.0 1.7 2.5 4.2 3.9 2.9 2.2 1.3 0.0 0.5 -0.1 0.1 -0.0 -0.2 0.1 -0.5 -0.5 -0.4 -0.4 0.1 0.4 1.0 1.8 2.5 2.2 2.9 3.4 3.9 5.4
0.9 0.8 0.5 0.3 -0.1 -0.2 -0.1 0.2 0.4 0.2 -0.5 -0.2 -0.5 -0.5 -0.3 -0.3 0.3 1.2 4.4 2.6 1.8 0.8 0.4 -0.1 -0.6 -0.5 0.1 0.1 -0.2 -0.5 -0.7 -1.3 -1.5 -0.4 0.2 1.9 3.6 2.3 2.2 3.4 3.2 4.1 7.6
0.0 0.6 0.4 -0.3 -0.5 -0.7 0.1 0.1 -0.3 0.2 0.2 -0.4 -0.9 -0.6 0.2 1.1 1.2 0.5 0.3 2.4 2.0 2.3 1.7 0.9 -0.1 -0.1 0.5 1.0 0.8 -0.2 -1.0 -1.7 -0.9 0.8 2.1 3.1 2.5 2.0 2.1 3.3 4.7 6.2 7.1
-0.3 0.2 -0.1 -0.4 -0.1 -0.2 -0.7 -0.6 -0.4 -0.1 0.0 -0.2 -0.6 -1.5 -1.3 -0.6 -0.5 0.1 0.8 0.7 2.5 2.4 2.5 1.5 1.2 1.1 1.1 1.1 1.6 0.8 0.0 -0.4 1.1 1.4 2.1 2.1 1.3 1.1 2.2 3.8 5.2 5.5 5.6
0.1 0.1 0.3 0.5 0.6 0.5 0.4 -0.3 -0.7 -0.8 -0.4 -0.6 -0.7 -1.1 -1.2 -1.4 -0.7 -0.3 0.4 -0.1 1.9 4.2 5.1 2.4 1.8 1.3 1.6 1.7 2.1 1.5 1.7 1.5 2.2 2.9 3.5 4.0 3.2 4.1 4.3 5.0 5.2 5.1 4.8
0.7 -0.0 0.0 0.0 0.0 0.5 0.6 0.6 -0.0 -0.0 0.1 0.1 -0.4 -0.5 -1.1 -1.6 -1.4 -1.2 -0.8 0.0 0.5 1.4 3.0 2.3 2.1 1.8 1.8 2.2 2.2 2.1 3.1 4.4 4.3 4.6 5.3 4.9 4.9 5.2 5.1 5.3 6.1 7.5 7.2
1.3 0.5 0.7 0.5 0.4 -0.0 0.4 0.7 0.4 0.4 0.5 0.1 -0.1 -0.0 -0.5 -0.9 -1.2 -1.2 -1.1 -0.7 0.0 0.7 0.4 1.4 2.0 1.8 2.8 3.0 3.0 2.4 3.9 4.8 7.2 5.9 5.5 4.8 4.7 4.9 5.5 5.6 5.7 7.8 8.3
2.1 1.7 1.5 1.4 1.3 1.3 0.4 0.6 1.2 1.1 1.3 1.1 0.6 0.5 0.5 0.1 -0.3 -0.7 -0.7 -0.5 -0.1 0.5 0.6 1.0 1.7 1.2 1.3 1.9 1.8 2.6 3.1 5.0 6.7 7.7 6.6 5.4 4.7 5.3 5.4 5.6 5.7 6.3 8.1
1.9 2.2 2.0 1.9 2.0 2.1 1.9 1.6 2.4 2.3 1.6 1.3 1.0 0.8 0.9 1.2 -0.2 -0.1 -0.0 0.1 0.2 -0.6 -0.0 0.2 0.6 0.8 1.2 1.4 2.2 2.6 3.9 5.0 6.5 7.9 7.7 5.4 5.7 5.5 5.2 5.3 5.4 6.0 7.2
1.6 2.2 2.4 2.4 2.6 2.9 2.9 2.4 1.9 1.6 0.7 0.1 0.0 0.6 -0.0 -1.5 -1.6 -1.0 -0.5 0.2 0.8 1.5 1.7 1.5 0.0 0.6 1.1 1.7 3.4 2.2 2.5 2.7 5.8 6.9 7.2 7.1 6.4 6.0 8.1 6.6 6.5 7.0 6.4
1.4 1.5 2.3 2.5 2.6 3.2 3.3 2.4 2.4 0.7 0.7 -0.2 0.3 0.7 0.4 -0.1 0.6 0.3 1.2 0.8 1.7 1.3 2.3 1.7 1.4 1.2 1.4 1.4 2.4 3.4 2.3 2.1 2.8 4.4 5.0 5.3 5.8 5.4 5.9 6.3 7.8 8.4 8.1
1.8 1.9 2.0 2.3 2.7 2.8 3.1 2.2 3.5 1.2 -0.0 -1.0 -0.0 1.7 1.6 0.8 1.9 2.4 1.4 1.5 1.8 1.8 2.4 2.0 1.4 0.9 0.9 1.0 2.0 2.2 4.0 2.5 2.3 2.4 4.7 4.7 4.7 4.6 4.4 5.8 6.1 6.8 8.2
1.3 1.2 1.7 2.1 1.8 1.9 2.2 2.8 3.3 2.3 0.6 1.0 1.2 1.7 2.3 1.4 2.4 2.8 2.5 2.2 1.9 2.6 2.2 1.6 0.7 1.1 -0.4 -0.1 0.7 2.1 3.0 3.8 3.9 2.6 4.6 4.6 5.2 4.0 4.5 6.0 7.1 7.2 8.2
1.2 0.7 0.6 1.2 1.2 2.1 2.8 3.9 4.1 2.4 2.6 2.2 2.2 3.0 3.0 1.2 1.5 1.1 1.6 1.4 0.9 1.1 0.8 0.6 0.2 -0.8 -0.9 -0.8 0.4 1.9 2.3 2.0 1.1 2.0 3.5 4.4 4.0 3.5 3.9 5.7 5.0 6.0 7.9
1.4 0.9 1.1 1.4 2.2 2.8 4.2 4.3 3.8 2.9 2.3 1.6 2.1 3.0 1.5 0.9 0.6 0.5 0.4 -0.3 -0.7 -0.6 -0.6 -0.4 -0.8 -1.7 -1.8 -0.7 0.1 1.7 2.0 1.0 0.6 0.6 1.5 4.5 2.7 2.1 2.8 3.4 4.4 4.3 4.3
1.2 1.9 1.6 2.0 3.2 3.9 5.0 4.2 3.1 2.4 2.2 2.5 3.3 3.9 2.6 1.7 2.1 1.5 0.5 -0.1 -1.0 -1.8 0.8 1.0 0.4 -0.3 0.8 0.1 0.3 1.7 1.7 2.5 -1.2 -2.0 -1.3 -1.0 0.4 0.7 -0.7 1.8 3.2 3.5 3.4
1.2 1.6 2.1 2.9 4.0 4.1 4.7 4.3 2.8 2.3 2.4 2.4 2.4 3.4 3.5 2.8 3.2 1.6 0.4 -0.0 -0.8 -2.5 -1.5 -2.0 -3.2 -3.2 -3.1 -1.1 -0.9 -0.7 -0.6 1.5 -4.6 -3.8 -3.0 -0.1 -0.0 1.0 1.6 2.7 3.6 3.2 2.7
Wind_Speed
3 3 2 1 1 1 1 3 3 4 4 5 7 8 7 10 13 14 15 25 24 20 18 21 20 23 23 23 22 21 22 22 23 24 25 24 23 22 23 14 17 20 22
5 4 3 1 1 3 3 2 1 3 2 5 4 7 6 10 14 15 17 20 26 24 21 22 21 21 21 22 21 21 22 22 21 22 23 23 24 21 22 21 21 18 18
6 5 4 3 4 4 5 5 6 5 4 4 5 7 9 13 13 17 16 17 20 22 22 22 22 20 18 18 18 19 18 19 19 19 19 21 21 21 21 22 20 20 19
3 5 4 3 4 4 4 3 3 3 4 4 3 4 4 11 12 14 16 15 16 18 21 21 21 21 20 20 19 18 17 18 19 20 19 18 17 18 19 20 19 20 20
4 6 5 5 6 4 2 2 2 2 2 3 4 4 5 5 8 11 14 15 17 17 17 22 24 22 20 18 18 17 18 18 19 19 19 18 19 19 20 20 20 20 20
6 7 6 5 7 4 3 2 2 3 2 3 5 6 6 5 9 7 10 14 15 16 14 15 16 18 19 19 18 18 17 17 17 18 19 21 21 20 21 21 22 22 21
6 6 4 4 5 4 4 4 3 3 2 1 3 7 8 9 9 7 10 10 14 13 15 16 14 15 15 17 17 17 17 17 18 18 18 19 19 20 20 21 22 22 23
2 3 3 4 4 4 4 4 3 3 2 3 3 3 3 3 7 7 7 7 9 11 13 14 14 14 15 15 15 18 18 17 17 18 19 19 19 19 19 20 22 23 24
2 2 3 3 2 2 3 3 4 4 3 0 4 3 3 3 4 4 7 6 7 6 9 11 11 12 13 13 14 17 18 18 18 19 20 19 21 21 20 20 21 22 24
2 2 3 4 3 1 2 2 2 3 3 4 1 2 2 4 3 3 4 4 5 6 4 9 10 12 14 16 16 18 17 19 21 22 22 21 21 20 21 21 22 23 23
2 2 3 3 3 2 1 0 2 3 2 3 1 1 3 4 4 3 4 3 3 3 5 6 10 13 13 13 14 16 18 21 22 20 20 19 18 20 22 22 22 23 24
1 2 4 5 6 5 3 1 1 1 1 2 2 2 2 3 3 3 3 3 4 2 2 5 7 10 11 11 13 15 17 20 19 17 16 17 19 21 22 23 23 24 24
3 4 3 4 2 4 6 5 3 3 2 3 3 2 2 2 2 3 4 3 3 2 2 2 3 7 8 8 11 14 14 16 15 17 17 18 21 23 24 23 22 24 25
4 5 5 6 6 6 5 6 3 3 4 3 5 4 3 3 2 1 4 5 3 2 3 4 1 5 6 7 11 11 12 12 14 15 17 18 21 20 21 21 22 24 24
4 6 8 6 7 7 7 5 3 4 5 4 4 4 4 3 4 3 3 3 4 4 2 3 2 1 5 8 11 12 10 10 13 13 15 18 20 20 19 22 24 24 24
7 7 7 6 7 6 7 5 4 4 6 4 4 5 4 3 4 4 3 3 3 3 3 2 2 2 3 9 13 12 9 10 10 10 13 17 20 20 20 22 24 25 24
8 8 8 7 7 7 7 6 5 6 6 5 5 6 5 5 3 4 4 3 4 2 4 3 2 2 3 5 10 12 11 8 5 9 12 17 19 19 20 23 23 24 25
10 11 9 8 8 7 6 6 6 5 6 6 5 6 5 6 5 4 2 3 3 4 3 7 2 2 4 3 6 8 7 6 5 7 13 17 18 19 20 22 23 24 24
7 6 8 9 7 6 7 6 6 7 7 7 6 5 4 7 5 2 2 3 2 4 3 5 3 2 3 2 3 9 7 7 6 8 10 15 18 19 18 22 23 23 23
6 6 7 7 8 8 8 8 9 9 9 7 6 5 3 5 5 4 3 4 4 4 4 5 3 2 2 2 2 2 4 5 3 7 10 12 15 18 19 21 23 23 23
6 8 8 8 8 8 6 8 8 8 9 9 7 5 4 5 5 2 3 3 5 4 4 4 3 2 2 2 2 1 2 2 3 6 4 9 9 13 16 17 21 22 24
6 9 8 9 8 5 14 14 11 7 7 7 8 6 7 10 10 12 12 10 5 4 3 3 2 2 3 2 2 1 2 2 2 7 1 4 9 8 13 17 21 21 22
5 6 7 8 7 8 16 16 14 6 7 7 7 6 7 7 8 9 15 19 18 15 8 4 4 2 3 3 3 2 2 2 1 2 1 3 7 5 13 15 20 20 20
6 6 7 6 7 6 15 16 16 8 7 7 6 4 6 5 5 6 7 10 9 9 11 11 7 4 4 6 4 3 3 6 3 4 4 2 2 2 12 15 19 19 19
6 4 5 7 6 5 14 18 14 8 8 7 6 6 6 4 10 12 10 10 8 5 15 16 16 16 13 10 6 7 3 3 1 2 6 2 2 2 3 7 15 18 18
5 6 6 5 9 7 17 17 13 7 7 6 6 4 10 7 10 13 7 8 8 4 6 4 5 13 19 19 16 4 2 2 2 2 2 2 1 2 2 3 11 16 14
Wind_Direction
150 157 140 171 83 40 101 101 98 97 80 79 70 91 81 86 87 83 73 84 87 90 92 89 85 80 77 72 65 57 53 52 49 46 44 38 33 30 29 342 292 274 262
168 162 136 118 130 110 87 78 72 101 81 100 83 87 98 92 93 88 85 73 79 78 80 80 75 77 71 65 60 57 52 49 47 44 42 37 30 21 22 17 13 353 282
177 153 140 138 154 140 123 109 74 75 72 51 76 77 99 104 103 99 98 93 85 80 81 80 77 69 66 64 58 50 45 38 35 32 28 27 23 20 17 17 10 8 355
148 160 144 138 142 116 120 101 94 76 84 89 73 52 79 101 107 113 107 107 98 89 83 84 80 76 70 62 55 48 42 36 33 29 25 21 14 9 7 7 3 360 356
139 138 132 137 138 121 91 92 49 75 90 86 93 68 94 105 107 108 106 105 105 102 98 86 81 75 69 63 54 46 40 35 29 24 20 16 13 9 5 359 353 349 346
133 142 139 142 150 137 122 95 107 44 68 90 70 62 49 51 60 66 101 105 97 90 88 85 79 70 67 62 51 43 37 33 29 24 19 14 9 6 3 359 353 347 335
149 148 146 145 157 154 165 147 124 122 82 115 99 78 63 54 56 54 66 82 81 81 78 74 71 65 60 58 51 43 38 35 32 28 24 18 15 10 7 3 354 346 343
120 161 163 165 159 142 147 158 153 135 130 166 136 110 132 96 63 51 60 71 65 72 73 79 80 74 75 63 53 48 38 34 33 30 25 20 16 11 8 6 2 0 355
62 159 163 167 158 142 181 182 175 166 154 171 219 148 149 172 136 71 59 67 73 66 58 70 75 71 70 65 60 48 39 35 32 27 24 19 15 13 10 5 2 360 358
124 139 153 162 160 159 179 195 206 178 141 176 93 47 56 137 156 138 71 69 78 83 60 78 70 63 63 54 56 48 45 43 36 32 27 20 16 18 14 5 358 352 352
148 127 144 143 135 108 88 196 239 231 193 151 136 138 63 47 79 135 151 139 71 35 60 74 76 66 61 53 56 46 41 40 32 27 23 20 24 26 14 6 359 354 344
192 156 137 133 141 131 134 70 10 43 258 86 120 135 156 160 166 136 115 132 132 108 71 77 77 76 66 71 61 51 46 44 31 27 27 29 25 21 17 9 2 0 357
189 189 164 159 157 148 136 125 97 71 46 84 89 86 66 65 108 112 110 136 141 154 129 64 88 87 80 83 77 63 52 49 36 32 31 29 28 23 17 10 5 4 1
177 166 171 167 154 145 132 128 112 100 91 85 90 91 91 57 48 97 139 143 113 138 151 137 111 107 95 103 92 79 68 61 49 41 37 37 38 31 22 15 12 9 4
172 177 171 162 156 147 139 129 122 120 111 101 93 85 87 74 64 58 71 96 131 151 155 177 133 129 110 114 107 96 77 78 62 49 41 41 39 34 25 22 17 13 9
173 173 176 164 153 148 145 140 136 136 126 122 120 108 89 79 76 70 72 71 72 125 131 112 85 120 103 103 112 96 83 64 82 63 44 43 41 34 28 27 23 17 14
182 177 174 164 160 159 155 146 151 141 129 123 125 121 114 96 90 82 79 87 82 80 102 79 93 54 56 101 103 95 90 66 39 77 55 42 43 35 33 31 26 24 18
182 176 173 170 167 164 150 144 148 130 119 108 106 116 130 121 83 74 67 85 91 71 113 127 117 71 65 49 114 89 70 61 334 78 65 51 42 42 35 35 32 28 25
183 174 165 159 154 143 129 110 106 96 80 73 57 66 87 100 103 128 114 117 109 102 104 137 129 98 72 35 102 75 56 52 23 46 65 54 44 41 36 36 34 29 34
150 141 146 138 136 132 127 121 122 115 108 87 82 67 77 95 119 123 110 112 115 111 120 119 96 112 109 51 73 112 76 41 359 33 55 47 49 44 37 38 36 29 30
148 141 131 123 124 121 125 126 123 121 120 110 93 96 97 101 124 146 132 140 128 117 132 128 114 120 135 141 105 47 119 100 25 10 43 36 28 35 35 32 39 34 24
128 126 133 130 117 123 137 135 126 117 109 113 113 105 86 85 93 97 99 95 89 132 143 122 119 142 138 115 114 136 118 181 176 20 345 46 34 33 24 40 39 37 29
102 107 111 114 116 127 138 134 120 111 112 109 123 122 116 105 91 90 89 86 79 78 87 119 131 142 140 140 140 128 102 108 109 340 349 66 4 42 27 32 39 40 34
110 113 100 105 117 128 141 133 120 112 111 104 120 151 123 124 125 115 106 90 84 78 78 85 100 122 123 157 143 100 110 109 98 42 359 111 338 33 29 36 40 38 36
116 115 122 120 124 143 156 138 121 118 117 120 122 127 123 121 135 131 118 110 97 64 102 97 86 70 89 122 141 137 166 137 51 348 357 99 331 1 10 16 41 39 37
112 116 108 113 140 141 147 146 129 124 122 119 108 144 146 156 133 134 119 118 114 92 89 62 41 59 68 72 68 93 163 118 125 28 289 92 21 71 25 336 38 32 26